Time,TemperatureF,DewpointF,PressureIn,WindDirection,WindDirectionDegrees,WindSpeedMPH,WindSpeedGustMPH,Humidity,HourlyPrecipIn,Conditions,Clouds,dailyrainin,SoftwareType,DateUTC
2013-05-22 00:05:00,72.5,68.1,29.87,ESE,113,1.0,9.0,86,0.00,,,0.00,Wunderground v.1.15,2013-05-22 04:05:00,
2013-05-22 00:10:00,72.3,67.9,29.87,SE,134,1.0,1.0,86,0.00,,,0.00,Wunderground v.1.15,2013-05-22 04:10:00,
2013-05-22 00:15:00,72.3,67.9,29.87,ESE,122,3.0,3.0,86,0.00,,,0.00,Wunderground v.1.15,2013-05-22 04:15:00,
2013-05-22 00:20:00,72.3,67.9,29.87,ESE,107,2.0,2.0,86,0.00,,,0.00,Wunderground v.1.15,2013-05-22 04:20:00,
2013-05-22 00:30:00,72.1,67.7,29.86,ESE,110,0.0,0.0,86,0.00,,,0.00,Wunderground v.1.15,2013-05-22 04:30:00,
2013-05-22 00:35:00,72.0,67.6,29.86,ESE,115,0.0,0.0,86,0.00,,,0.00,Wunderground v.1.15,2013-05-22 04:35:00,
2013-05-22 00:45:00,71.8,67.7,29.86,ESE,111,0.0,0.0,87,0.00,,,0.00,Wunderground v.1.15,2013-05-22 04:45:00,
2013-05-22 00:50:00,71.8,67.7,29.86,ESE,111,0.0,0.0,87,0.00,,,0.00,Wunderground v.1.15,2013-05-22 04:50:00,
2013-05-22 01:00:00,71.6,67.5,29.86,ESE,115,0.0,0.0,87,0.00,,,0.00,Wunderground v.1.15,2013-05-22 05:00:00,
2013-05-22 01:05:00,71.6,67.5,29.86,ESE,108,0.0,12.0,87,0.00,,,0.00,Wunderground v.1.15,2013-05-22 05:05:00,
2013-05-22 01:10:00,71.5,67.4,29.86,East,87,0.0,12.0,87,0.00,,,0.00,Wunderground v.1.15,2013-05-22 05:10:00,
2013-05-22 01:15:00,71.5,67.4,29.86,East,87,0.0,12.0,87,0.00,,,0.00,Wunderground v.1.15,2013-05-22 05:15:00,
2013-05-22 01:20:00,71.3,67.2,29.86,East,87,0.0,12.0,87,0.00,,,0.00,Wunderground v.1.15,2013-05-22 05:20:00,
2013-05-22 01:25:00,71.3,67.2,29.86,East,87,0.0,12.0,87,0.00,,,0.00,Wunderground v.1.15,2013-05-22 05:25:00,
2013-05-22 01:35:00,71.1,67.4,29.86,ENE,65,1.0,12.0,88,0.00,,,0.00,Wunderground v.1.15,2013-05-22 05:35:00,
2013-05-22 01:45:00,71.1,67.4,29.86,ESE,113,1.0,12.0,88,0.00,,,0.00,Wunderground v.1.15,2013-05-22 05:45:00,
2013-05-22 01:50:00,71.1,67.4,29.86,ESE,111,1.0,1.0,88,0.00,,,0.00,Wunderground v.1.15,2013-05-22 05:50:00,
2013-05-22 02:00:00,70.8,67.1,29.85,ESE,111,0.0,12.0,88,0.00,,,0.00,Wunderground v.1.15,2013-05-22 06:00:00,
2013-05-22 02:05:00,70.8,67.1,29.85,ESE,111,0.0,12.0,88,0.00,,,0.00,Wunderground v.1.15,2013-05-22 06:05:00,
2013-05-22 02:15:00,70.6,67.2,29.85,ESE,111,0.0,12.0,89,0.00,,,0.00,Wunderground v.1.15,2013-05-22 06:15:00,
2013-05-22 02:20:00,70.4,67.0,29.85,ESE,111,0.0,12.0,89,0.00,,,0.00,Wunderground v.1.15,2013-05-22 06:20:00,
2013-05-22 02:30:00,70.3,67.2,29.84,ESE,111,0.0,12.0,90,0.00,,,0.00,Wunderground v.1.15,2013-05-22 06:30:00,
2013-05-22 02:35:00,70.3,67.2,29.84,ESE,111,0.0,12.0,90,0.00,,,0.00,Wunderground v.1.15,2013-05-22 06:35:00,
2013-05-22 02:40:00,70.1,67.0,29.84,ESE,111,0.0,12.0,90,0.00,,,0.00,Wunderground v.1.15,2013-05-22 06:40:00,
2013-05-22 02:50:00,69.9,66.8,29.84,ESE,111,0.0,12.0,90,0.00,,,0.00,Wunderground v.1.15,2013-05-22 06:50:00,
2013-05-22 03:00:00,70.1,67.3,29.84,ESE,120,0.0,12.0,91,0.00,,,0.00,Wunderground v.1.15,2013-05-22 07:00:00,
2013-05-22 03:05:00,70.1,67.3,29.84,ESE,120,0.0,12.0,91,0.00,,,0.00,Wunderground v.1.15,2013-05-22 07:05:00,
2013-05-22 03:15:00,70.1,67.7,29.83,East,99,0.0,0.0,92,0.00,,,0.00,Wunderground v.1.15,2013-05-22 07:15:00,
2013-05-22 03:20:00,70.1,67.7,29.83,East,99,0.0,0.0,92,0.00,,,0.00,Wunderground v.1.15,2013-05-22 07:20:00,
2013-05-22 03:30:00,70.1,67.7,29.83,East,99,0.0,0.0,92,0.00,,,0.00,Wunderground v.1.15,2013-05-22 07:30:00,
2013-05-22 03:40:00,70.1,67.7,29.83,East,99,0.0,0.0,92,0.00,,,0.00,Wunderground v.1.15,2013-05-22 07:40:00,
2013-05-22 03:45:00,69.9,67.5,29.83,East,99,0.0,0.0,92,0.00,,,0.00,Wunderground v.1.15,2013-05-22 07:45:00,
2013-05-22 03:55:00,69.9,67.5,29.83,East,99,0.0,0.0,92,0.00,,,0.00,Wunderground v.1.15,2013-05-22 07:55:00,
2013-05-22 04:05:00,69.8,67.4,29.82,East,99,0.0,6.0,92,0.00,,,0.00,Wunderground v.1.15,2013-05-22 08:05:00,
2013-05-22 04:10:00,69.8,67.4,29.82,East,99,0.0,6.0,92,0.00,,,0.00,Wunderground v.1.15,2013-05-22 08:10:00,
2013-05-22 04:20:00,69.6,67.2,29.82,East,92,0.0,6.0,92,0.00,,,0.00,Wunderground v.1.15,2013-05-22 08:20:00,
2013-05-22 04:30:00,69.4,67.0,29.83,East,92,0.0,6.0,92,0.00,,,0.00,Wunderground v.1.15,2013-05-22 08:30:00,
2013-05-22 04:35:00,69.3,66.9,29.83,East,91,0.0,6.0,92,0.00,,,0.00,Wunderground v.1.15,2013-05-22 08:35:00,
2013-05-22 04:45:00,69.1,66.7,29.83,East,91,0.0,6.0,92,0.00,,,0.00,Wunderground v.1.15,2013-05-22 08:45:00,
2013-05-22 04:50:00,69.1,66.7,29.83,East,91,0.0,6.0,92,0.00,,,0.00,Wunderground v.1.15,2013-05-22 08:50:00,
2013-05-22 05:00:00,69.1,66.7,29.83,ESE,104,0.0,6.0,92,0.00,,,0.00,Wunderground v.1.15,2013-05-22 09:00:00,
2013-05-22 05:10:00,69.3,66.9,29.83,ESE,116,0.0,6.0,92,0.00,,,0.00,Wunderground v.1.15,2013-05-22 09:10:00,
2013-05-22 05:15:00,69.4,67.0,29.83,SE,131,0.0,6.0,92,0.00,,,0.00,Wunderground v.1.15,2013-05-22 09:15:00,
2013-05-22 05:25:00,69.9,67.5,29.83,East,98,2.0,2.0,92,0.00,,,0.00,Wunderground v.1.15,2013-05-22 09:25:00,
2013-05-22 05:30:00,69.9,67.5,29.83,SE,130,1.0,6.0,92,0.00,,,0.00,Wunderground v.1.15,2013-05-22 09:30:00,
2013-05-22 05:40:00,70.1,67.7,29.83,ESE,117,3.0,6.0,92,0.00,,,0.00,Wunderground v.1.15,2013-05-22 09:40:00,
2013-05-22 05:50:00,70.3,67.5,29.83,ESE,112,3.0,3.0,91,0.00,,,0.00,Wunderground v.1.15,2013-05-22 09:50:00,
2013-05-22 05:55:00,70.3,67.5,29.83,ESE,110,3.0,6.0,91,0.00,,,0.00,Wunderground v.1.15,2013-05-22 09:55:00,
2013-05-22 06:05:00,70.3,67.5,29.83,ESE,103,1.0,6.0,91,0.00,,,0.00,Wunderground v.1.15,2013-05-22 10:05:00,
2013-05-22 06:15:00,70.3,67.5,29.84,ESE,115,0.0,1.0,91,0.00,,,0.00,Wunderground v.1.15,2013-05-22 10:15:00,
2013-05-22 06:20:00,70.3,67.5,29.84,ESE,121,0.0,0.0,91,0.00,,,0.00,Wunderground v.1.15,2013-05-22 10:20:00,
2013-05-22 06:30:00,70.3,67.9,29.84,ESE,120,0.0,0.0,92,0.00,,,0.00,Wunderground v.1.15,2013-05-22 10:30:00,
2013-05-22 06:40:00,70.1,67.7,29.84,ESE,117,0.0,0.0,92,0.00,,,0.00,Wunderground v.1.15,2013-05-22 10:40:00,
2013-05-22 06:45:00,70.1,67.7,29.84,ESE,117,0.0,0.0,92,0.00,,,0.00,Wunderground v.1.15,2013-05-22 10:45:00,
2013-05-22 06:55:00,70.1,67.7,29.84,East,101,0.0,0.0,92,0.00,,,0.00,Wunderground v.1.15,2013-05-22 10:55:00,
2013-05-22 07:00:00,70.1,67.7,29.85,ESE,111,0.0,0.0,92,0.00,,,0.00,Wunderground v.1.15,2013-05-22 11:00:00,
2013-05-22 07:10:00,70.4,68.0,29.85,ESE,109,0.0,13.0,92,0.00,,,0.00,Wunderground v.1.15,2013-05-22 11:10:00,
2013-05-22 07:20:00,70.6,68.2,29.84,East,95,0.0,13.0,92,0.00,,,0.00,Wunderground v.1.15,2013-05-22 11:20:00,
2013-05-22 07:25:00,70.8,68.4,29.84,East,95,0.0,13.0,92,0.00,,,0.00,Wunderground v.1.15,2013-05-22 11:25:00,
2013-05-22 07:35:00,70.9,68.1,29.85,ESE,116,0.0,13.0,91,0.00,,,0.00,Wunderground v.1.15,2013-05-22 11:35:00,
2013-05-22 07:45:00,71.8,69.0,29.85,ESE,116,0.0,13.0,91,0.00,,,0.00,Wunderground v.1.15,2013-05-22 11:45:00,
2013-05-22 07:50:00,71.8,68.7,29.85,ESE,116,0.0,13.0,90,0.00,,,0.00,Wunderground v.1.15,2013-05-22 11:50:00,
2013-05-22 08:00:00,72.3,68.9,29.85,ESE,109,0.0,13.0,89,0.00,,,0.00,Wunderground v.1.15,2013-05-22 12:00:00,
2013-05-22 08:05:00,72.7,69.3,29.85,ESE,113,0.0,13.0,89,0.00,,,0.00,Wunderground v.1.15,2013-05-22 12:05:00,
2013-05-22 08:15:00,73.0,69.2,29.86,ESE,117,0.0,13.0,88,0.00,,,0.00,Wunderground v.1.15,2013-05-22 12:15:00,
2013-05-22 08:25:00,73.3,69.2,29.86,SE,134,2.0,2.0,87,0.00,,,0.00,Wunderground v.1.15,2013-05-22 12:25:00,
2013-05-22 08:30:00,73.7,69.6,29.86,ESE,123,2.0,2.0,87,0.00,,,0.00,Wunderground v.1.15,2013-05-22 12:30:00,
2013-05-22 08:45:00,74.6,69.8,29.86,SE,125,0.0,13.0,85,0.00,,,0.00,Wunderground v.1.15,2013-05-22 12:45:00,
2013-05-22 08:50:00,74.7,69.9,29.86,SE,124,0.0,13.0,85,0.00,,,0.00,Wunderground v.1.15,2013-05-22 12:50:00,
2013-05-22 08:55:00,75.3,70.1,29.86,ENE,77,0.0,13.0,84,0.00,,,0.00,Wunderground v.1.15,2013-05-22 12:55:00,
2013-05-22 09:05:00,76.0,70.1,29.86,SE,141,0.0,13.0,82,0.00,,,0.00,Wunderground v.1.15,2013-05-22 13:05:00,
2013-05-22 09:15:00,76.5,70.2,29.86,SSE,167,0.0,4.0,81,0.00,,,0.00,Wunderground v.1.15,2013-05-22 13:15:00,
2013-05-22 09:20:00,76.7,70.8,29.86,SE,143,0.0,0.0,82,0.00,,,0.00,Wunderground v.1.15,2013-05-22 13:20:00,
2013-05-22 09:30:00,77.2,70.9,29.87,SSE,152,0.0,0.0,81,0.00,,,0.00,Wunderground v.1.15,2013-05-22 13:30:00,
2013-05-22 09:35:00,77.7,70.7,29.87,ESE,117,0.0,0.0,79,0.00,,,0.00,Wunderground v.1.15,2013-05-22 13:35:00,
2013-05-22 09:45:00,78.1,71.1,29.87,WNW,292,0.0,0.0,79,0.00,,,0.00,Wunderground v.1.15,2013-05-22 13:45:00,
2013-05-22 09:55:00,78.1,70.3,29.87,SSW,201,2.0,2.0,77,0.00,,,0.00,Wunderground v.1.15,2013-05-22 13:55:00,
2013-05-22 10:05:00,78.5,70.7,29.88,SW,219,0.0,6.0,77,0.00,,,0.00,Wunderground v.1.15,2013-05-22 14:05:00,
2013-05-22 10:10:00,78.3,70.5,29.88,SW,223,0.0,7.0,77,0.00,,,0.00,Wunderground v.1.15,2013-05-22 14:10:00,
2013-05-22 10:20:00,78.1,70.7,29.88,WNW,285,2.0,2.0,78,0.00,,,0.00,Wunderground v.1.15,2013-05-22 14:20:00,
2013-05-22 10:25:00,78.1,70.3,29.88,WNW,287,0.0,6.0,77,0.00,,,0.00,Wunderground v.1.15,2013-05-22 14:25:00,
2013-05-22 10:35:00,78.3,70.5,29.88,WNW,290,4.0,9.0,77,0.00,,,0.00,Wunderground v.1.15,2013-05-22 14:35:00,
2013-05-22 10:45:00,78.1,71.1,29.88,WNW,289,4.0,7.0,79,0.00,,,0.00,Wunderground v.1.15,2013-05-22 14:45:00,
2013-05-22 10:50:00,78.5,70.7,29.88,NW,326,1.0,1.0,77,0.00,,,0.00,Wunderground v.1.15,2013-05-22 14:50:00,
2013-05-22 11:00:00,79.6,71.0,29.88,West,263,3.0,3.0,75,0.00,,,0.00,Wunderground v.1.15,2013-05-22 15:00:00,
2013-05-22 11:05:00,79.9,71.3,29.88,NW,324,4.0,17.0,75,0.00,,,0.00,Wunderground v.1.15,2013-05-22 15:05:00,
2013-05-22 11:15:00,79.4,71.6,29.88,West,276,11.0,17.0,77,0.00,,,0.00,Wunderground v.1.15,2013-05-22 15:15:00,
2013-05-22 11:25:00,79.0,71.2,29.88,NW,325,12.0,16.0,77,0.00,,,0.00,Wunderground v.1.15,2013-05-22 15:25:00,
2013-05-22 11:30:00,79.0,71.2,29.88,NW,321,13.0,18.0,77,0.00,,,0.00,Wunderground v.1.15,2013-05-22 15:30:00,
2013-05-22 11:40:00,79.4,71.6,29.88,NNW,330,10.0,10.0,77,0.00,,,0.00,Wunderground v.1.15,2013-05-22 15:40:00,
2013-05-22 11:50:00,79.6,71.0,29.89,WNW,290,8.0,18.0,75,0.00,,,0.00,Wunderground v.1.15,2013-05-22 15:50:00,
2013-05-22 12:00:00,79.8,71.2,29.88,WNW,286,14.0,19.0,75,0.00,,,0.00,Wunderground v.1.15,2013-05-22 16:00:00,
2013-05-22 12:10:00,80.1,70.7,29.88,WSW,244,11.0,12.0,73,0.00,,,0.00,Wunderground v.1.15,2013-05-22 16:10:00,
2013-05-22 12:15:00,80.1,70.7,29.88,WNW,290,12.0,12.0,73,0.00,,,0.00,Wunderground v.1.15,2013-05-22 16:15:00,
2013-05-22 12:25:00,79.8,70.4,29.88,NW,314,14.0,17.0,73,0.00,,,0.00,Wunderground v.1.15,2013-05-22 16:25:00,
2013-05-22 12:35:00,79.9,71.3,29.88,West,269,14.0,15.0,75,0.00,,,0.00,Wunderground v.1.15,2013-05-22 16:35:00,
2013-05-22 12:40:00,80.1,71.1,29.88,West,263,12.0,14.0,74,0.00,,,0.00,Wunderground v.1.15,2013-05-22 16:40:00,
2013-05-22 12:50:00,80.5,71.4,29.88,West,276,12.0,12.0,74,0.00,,,0.00,Wunderground v.1.15,2013-05-22 16:50:00,
2013-05-22 12:55:00,80.5,71.8,29.88,WSW,255,14.0,16.0,75,0.00,,,0.00,Wunderground v.1.15,2013-05-22 16:55:00,
2013-05-22 13:05:00,80.3,70.9,29.87,NW,319,13.0,16.0,73,0.00,,,0.00,Wunderground v.1.15,2013-05-22 17:05:00,
2013-05-22 13:15:00,81.1,71.2,29.87,WNW,294,14.0,27.0,72,0.00,,,0.00,Wunderground v.1.15,2013-05-22 17:15:00,
2013-05-22 13:20:00,81.1,70.4,29.87,WNW,288,15.0,27.0,70,0.00,,,0.00,Wunderground v.1.15,2013-05-22 17:20:00,
2013-05-22 13:30:00,80.7,70.8,29.86,WNW,299,19.0,19.0,72,0.00,,,0.00,Wunderground v.1.15,2013-05-22 17:30:00,
2013-05-22 13:40:00,81.4,71.1,29.86,WNW,285,16.0,16.0,71,0.00,,,0.00,Wunderground v.1.15,2013-05-22 17:40:00,
2013-05-22 13:45:00,81.6,70.9,29.86,WNW,284,15.0,18.0,70,0.00,,,0.00,Wunderground v.1.15,2013-05-22 17:45:00,
2013-05-22 13:55:00,81.2,70.5,29.86,West,272,18.0,23.0,70,0.00,,,0.00,Wunderground v.1.15,2013-05-22 17:55:00,
2013-05-22 14:05:00,81.1,70.0,29.86,West,269,19.0,25.0,69,0.00,,,0.00,Wunderground v.1.15,2013-05-22 18:05:00,
2013-05-22 14:10:00,81.2,68.8,29.86,West,269,18.0,27.0,66,0.00,,,0.00,Wunderground v.1.15,2013-05-22 18:10:00,
2013-05-22 14:20:00,81.1,70.0,29.85,West,281,21.0,27.0,69,0.00,,,0.00,Wunderground v.1.15,2013-05-22 18:20:00,
2013-05-22 14:30:00,81.4,69.4,29.85,WNW,300,20.0,27.0,67,0.00,,,0.00,Wunderground v.1.15,2013-05-22 18:30:00,
2013-05-22 14:35:00,81.4,70.2,29.85,WNW,290,20.0,27.0,69,0.00,,,0.00,Wunderground v.1.15,2013-05-22 18:35:00,
2013-05-22 14:45:00,81.1,70.0,29.85,WNW,289,21.0,29.0,69,0.00,,,0.00,Wunderground v.1.15,2013-05-22 18:45:00,
2013-05-22 14:50:00,81.2,69.6,29.85,West,261,20.0,20.0,68,0.00,,,0.00,Wunderground v.1.15,2013-05-22 18:50:00,
2013-05-22 15:00:00,81.8,68.9,29.84,West,281,16.0,27.0,65,0.00,,,0.00,Wunderground v.1.15,2013-05-22 19:00:00,
2013-05-22 15:10:00,81.6,70.4,29.84,West,279,18.0,24.0,69,0.00,,,0.00,Wunderground v.1.15,2013-05-22 19:10:00,
2013-05-22 15:20:00,81.6,70.0,29.83,West,274,19.0,19.0,68,0.00,,,0.00,Wunderground v.1.15,2013-05-22 19:20:00,
2013-05-22 15:25:00,81.4,70.2,29.83,WSW,258,20.0,20.0,69,0.00,,,0.00,Wunderground v.1.15,2013-05-22 19:25:00,
2013-05-22 15:35:00,81.4,70.7,29.83,WNW,286,19.0,22.0,70,0.00,,,0.00,Wunderground v.1.15,2013-05-22 19:35:00,
2013-05-22 15:40:00,81.6,70.4,29.83,WNW,282,20.0,23.0,69,0.00,,,0.00,Wunderground v.1.15,2013-05-22 19:40:00,
2013-05-22 15:50:00,81.4,69.8,29.83,WSW,248,21.0,21.0,68,0.00,,,0.00,Wunderground v.1.15,2013-05-22 19:50:00,
2013-05-22 16:00:00,81.8,70.6,29.83,NW,305,19.0,23.0,69,0.00,,,0.00,Wunderground v.1.15,2013-05-22 20:00:00,
2013-05-22 16:10:00,80.9,69.3,29.83,WNW,282,22.0,29.0,68,0.00,,,0.00,Wunderground v.1.15,2013-05-22 20:10:00,
2013-05-22 16:15:00,80.9,69.8,29.82,West,281,22.0,29.0,69,0.00,,,0.00,Wunderground v.1.15,2013-05-22 20:15:00,
2013-05-22 16:25:00,81.4,69.8,29.82,WNW,282,19.0,29.0,68,0.00,,,0.00,Wunderground v.1.15,2013-05-22 20:25:00,
2013-05-22 16:30:00,81.1,69.1,29.82,WNW,295,21.0,29.0,67,0.00,,,0.00,Wunderground v.1.15,2013-05-22 20:30:00,
2013-05-22 16:40:00,80.9,70.2,29.82,WNW,293,23.0,29.0,70,0.00,,,0.00,Wunderground v.1.15,2013-05-22 20:40:00,
2013-05-22 16:50:00,81.2,70.1,29.81,West,276,20.0,20.0,69,0.00,,,0.00,Wunderground v.1.15,2013-05-22 20:50:00,
2013-05-22 16:55:00,81.4,70.2,29.81,WNW,294,19.0,22.0,69,0.00,,,0.00,Wunderground v.1.15,2013-05-22 20:55:00,
2013-05-22 17:05:00,81.1,70.0,29.81,West,276,21.0,29.0,69,0.00,,,0.00,Wunderground v.1.15,2013-05-22 21:05:00,
2013-05-22 17:15:00,81.2,70.5,29.81,West,279,19.0,29.0,70,0.00,,,0.00,Wunderground v.1.15,2013-05-22 21:15:00,
2013-05-22 17:25:00,81.4,70.2,29.81,NW,319,17.0,20.0,69,0.00,,,0.00,Wunderground v.1.15,2013-05-22 21:25:00,
2013-05-22 17:30:00,81.2,69.6,29.81,WNW,303,17.0,17.0,68,0.00,,,0.00,Wunderground v.1.15,2013-05-22 21:30:00,
2013-05-22 17:40:00,80.7,68.7,29.81,West,278,20.0,29.0,67,0.00,,,0.00,Wunderground v.1.15,2013-05-22 21:40:00,
2013-05-22 17:45:00,80.7,69.6,29.80,West,279,22.0,29.0,69,0.00,,,0.00,Wunderground v.1.15,2013-05-22 21:45:00,
2013-05-22 17:55:00,80.9,69.3,29.80,WNW,300,18.0,29.0,68,0.00,,,0.00,Wunderground v.1.15,2013-05-22 21:55:00,
2013-05-22 18:05:00,81.2,70.1,29.81,West,280,14.0,29.0,69,0.00,,,0.00,Wunderground v.1.15,2013-05-22 22:05:00,
2013-05-22 18:15:00,81.1,70.0,29.81,NW,316,13.0,17.0,69,0.00,,,0.00,Wunderground v.1.15,2013-05-22 22:15:00,
2013-05-22 18:20:00,80.9,69.8,29.81,NW,307,14.0,21.0,69,0.00,,,0.00,Wunderground v.1.15,2013-05-22 22:20:00,
2013-05-22 18:30:00,81.1,70.0,29.81,WNW,284,17.0,19.0,69,0.00,,,0.00,Wunderground v.1.15,2013-05-22 22:30:00,
2013-05-22 18:40:00,80.9,70.2,29.81,NNW,336,17.0,20.0,70,0.00,,,0.00,Wunderground v.1.15,2013-05-22 22:40:00,
2013-05-22 18:50:00,80.5,69.8,29.82,NW,304,17.0,17.0,70,0.00,,,0.00,Wunderground v.1.15,2013-05-22 22:50:00,
2013-05-22 18:55:00,80.3,70.0,29.82,WNW,285,17.0,17.0,71,0.00,,,0.00,Wunderground v.1.15,2013-05-22 22:55:00,
2013-05-22 19:05:00,80.1,69.8,29.82,WNW,300,17.0,28.0,71,0.00,,,0.00,Wunderground v.1.15,2013-05-22 23:05:00,
2013-05-22 19:15:00,79.9,70.5,29.82,NW,310,14.0,28.0,73,0.00,,,0.00,Wunderground v.1.15,2013-05-22 23:15:00,
2013-05-22 19:25:00,79.6,70.6,29.82,WNW,296,15.0,28.0,74,0.00,,,0.00,Wunderground v.1.15,2013-05-22 23:25:00,
2013-05-22 19:30:00,79.6,70.2,29.83,NW,306,16.0,16.0,73,0.00,,,0.00,Wunderground v.1.15,2013-05-22 23:30:00,
2013-05-22 19:40:00,79.6,70.6,29.83,West,276,12.0,12.0,74,0.00,,,0.00,Wunderground v.1.15,2013-05-22 23:40:00,
2013-05-22 19:45:00,79.4,70.4,29.83,WNW,301,11.0,28.0,74,0.00,,,0.00,Wunderground v.1.15,2013-05-22 23:45:00,
2013-05-22 19:55:00,79.4,70.8,29.83,NW,307,8.0,28.0,75,0.00,,,0.00,Wunderground v.1.15,2013-05-22 23:55:00,
2013-05-22 20:05:00,79.2,71.0,29.83,WNW,294,9.0,28.0,76,0.00,,,0.00,Wunderground v.1.15,2013-05-23 00:05:00,
2013-05-22 20:15:00,79.0,71.2,29.83,WNW,297,5.0,28.0,77,0.00,,,0.00,Wunderground v.1.15,2013-05-23 00:15:00,
2013-05-22 20:20:00,79.0,71.2,29.83,West,279,2.0,2.0,77,0.00,,,0.00,Wunderground v.1.15,2013-05-23 00:20:00,
2013-05-22 20:30:00,78.6,71.2,29.83,WNW,295,2.0,28.0,78,0.00,,,0.00,Wunderground v.1.15,2013-05-23 00:30:00,
2013-05-22 20:40:00,78.6,71.2,29.83,NW,305,1.0,1.0,78,0.00,,,0.00,Wunderground v.1.15,2013-05-23 00:40:00,
2013-05-22 20:45:00,78.6,70.8,29.83,NW,316,1.0,28.0,77,0.00,,,0.00,Wunderground v.1.15,2013-05-23 00:45:00,
2013-05-22 20:55:00,78.8,71.0,29.83,NNW,336,0.0,28.0,77,0.00,,,0.00,Wunderground v.1.15,2013-05-23 00:55:00,
2013-05-22 21:05:00,78.1,70.3,29.83,ENE,77,2.0,28.0,77,0.00,,,0.00,Wunderground v.1.15,2013-05-23 01:05:00,
2013-05-22 21:15:00,77.6,70.2,29.84,ENE,72,1.0,2.0,78,0.00,,,0.00,Wunderground v.1.15,2013-05-23 01:15:00,
2013-05-22 21:25:00,77.0,70.0,29.84,ENE,75,0.0,0.0,79,0.00,,,0.00,Wunderground v.1.15,2013-05-23 01:25:00,
2013-05-22 21:30:00,76.8,69.8,29.84,East,92,0.0,0.0,79,0.00,,,0.00,Wunderground v.1.15,2013-05-23 01:30:00,
2013-05-22 21:40:00,76.5,69.9,29.84,East,90,0.0,0.0,80,0.00,,,0.00,Wunderground v.1.15,2013-05-23 01:40:00,
2013-05-22 21:50:00,76.1,69.8,29.84,East,88,0.0,0.0,81,0.00,,,0.00,Wunderground v.1.15,2013-05-23 01:50:00,
2013-05-22 21:55:00,76.1,69.8,29.84,East,88,0.0,0.0,81,0.00,,,0.00,Wunderground v.1.15,2013-05-23 01:55:00,
2013-05-22 22:05:00,76.0,69.7,29.84,East,88,0.0,11.0,81,0.00,,,0.00,Wunderground v.1.15,2013-05-23 02:05:00,
2013-05-22 22:15:00,75.6,69.7,29.85,East,87,0.0,11.0,82,0.00,,,0.00,Wunderground v.1.15,2013-05-23 02:15:00,
2013-05-22 22:25:00,75.4,69.9,29.85,East,84,0.0,11.0,83,0.00,,,0.00,Wunderground v.1.15,2013-05-23 02:25:00,
2013-05-22 22:30:00,75.3,70.1,29.85,East,84,0.0,11.0,84,0.00,,,0.00,Wunderground v.1.15,2013-05-23 02:30:00,
2013-05-22 22:40:00,75.3,70.1,29.85,East,84,0.0,11.0,84,0.00,,,0.00,Wunderground v.1.15,2013-05-23 02:40:00,
2013-05-22 22:50:00,75.3,70.5,29.85,East,84,0.0,11.0,85,0.00,,,0.00,Wunderground v.1.15,2013-05-23 02:50:00,
2013-05-22 23:00:00,75.3,70.8,29.85,East,84,0.0,11.0,86,0.00,,,0.00,Wunderground v.1.15,2013-05-23 03:00:00,
2013-05-22 23:05:00,75.4,70.9,29.85,East,84,0.0,11.0,86,0.00,,,0.00,Wunderground v.1.15,2013-05-23 03:05:00,
2013-05-22 23:15:00,75.3,71.2,29.86,East,84,0.0,11.0,87,0.00,,,0.00,Wunderground v.1.15,2013-05-23 03:15:00,
2013-05-22 23:25:00,75.1,71.0,29.86,East,81,0.0,11.0,87,0.00,,,0.00,Wunderground v.1.15,2013-05-23 03:25:00,
2013-05-22 23:35:00,74.4,70.3,29.86,NE,43,1.0,11.0,87,0.00,,,0.00,Wunderground v.1.15,2013-05-23 03:35:00,
2013-05-22 23:45:00,73.9,70.1,29.86,ENE,64,0.0,11.0,88,0.00,,,0.00,Wunderground v.1.15,2013-05-23 03:45:00,
2013-05-22 23:50:00,73.9,70.1,29.86,ENE,64,0.0,11.0,88,0.00,,,0.00,Wunderground v.1.15,2013-05-23 03:50:00,